Wind_Speed
6 5 5 6 6 7 7 7 8 8 8 8 8 8 8 9 8 8 8 8 8 8 9 9 9 10 11 11 11 11 12 12 12 12 13 13 13 14 14 14 14 14 15
7 7 8 8 8 8 9 9 9 9 9 9 9 8 8 8 8 8 9 9 9 10 10 10 10 10 11 11 12 12 12 12 12 12 13 14 14 14 14 14 15 15 15
9 9 9 10 9 10 10 10 10 10 10 9 10 9 9 9 9 10 10 9 10 10 11 11 11 11 12 12 13 14 14 14 14 14 14 15 15 15 15 15 16 16 16
11 11 11 11 11 11 11 11 11 11 11 10 11 10 10 10 11 11 11 11 11 12 12 12 12 13 13 14 14 15 15 15 15 15 15 16 16 17 17 17 16 16 16
13 13 13 13 13 13 13 13 13 13 13 13 13 12 12 12 12 12 13 13 13 13 13 13 14 14 15 15 15 15 15 16 16 17 17 18 18 19 19 18 17 17 17
15 14 15 15 15 15 15 14 14 14 15 15 15 15 14 14 14 13 14 14 15 15 16 15 15 15 15 16 16 17 17 17 18 18 18 19 19 19 19 19 19 19 19
17 17 16 16 17 16 16 16 16 16 16 16 16 16 16 16 16 16 15 15 15 16 16 16 17 17 17 18 18 18 18 18 18 19 19 20 20 20 20 20 20 20 21
20 18 18 18 18 18 19 19 19 18 18 18 17 18 18 18 18 18 18 18 17 17 17 18 18 18 19 19 19 19 19 19 19 20 20 21 21 20 20 21 21 22 22
22 21 20 20 20 20 20 20 20 20 21 20 20 20 20 20 20 21 21 20 20 19 19 20 20 20 20 20 21 21 21 21 21 21 22 22 22 22 23 23 23 24 23
23 22 23 23 22 22 21 21 22 22 23 23 23 23 23 22 22 23 23 23 22 22 22 22 22 22 22 22 23 22 22 22 23 23 23 23 24 24 24 24 25 25 25
24 23 24 25 25 24 24 24 24 25 25 25 25 25 25 25 25 25 26 25 24 24 24 24 24 24 23 23 23 24 24 25 25 25 25 25 25 25 26 26 26 26 26
25 25 26 27 27 27 27 27 27 27 28 27 27 27 27 27 27 27 27 27 26 26 26 25 25 25 25 25 25 25 26 26 27 27 27 27 27 27 27 27 27 27 27
27 28 28 29 29 29 29 30 29 29 29 29 29 29 28 28 29 29 28 28 27 26 26 26 26 26 26 26 27 27 28 27 28 28 29 29 28 28 28 28 27 27 27
30 30 30 31 31 32 32 32 31 31 31 30 30 30 29 29 29 29 29 29 28 28 28 28 29 29 28 28 28 28 29 29 29 29 29 29 29 29 29 28 28 28 28
32 32 32 32 33 33 33 33 32 32 32 31 30 30 30 30 30 30 29 29 29 29 29 30 30 30 30 30 30 30 31 32 32 31 31 30 30 31 30 30 29 29 29
33 33 33 33 33 33 33 33 33 33 33 32 31 31 30 30 30 29 30 30 30 30 31 31 31 30 30 31 31 32 32 33 33 33 33 32 32 32 31 31 31 30 30
33 33 33 34 34 34 34 34 35 34 34 34 33 31 31 31 31 31 31 31 31 31 31 31 31 31 32 31 32 33 33 34 34 34 34 33 32 31 31 31 31 31 31
34 34 34 34 35 35 35 36 36 35 34 34 33 32 32 32 33 34 33 33 33 33 32 32 32 32 32 32 33 34 34 33 33 33 33 32 31 30 30 31 32 32 31
35 35 35 35 35 34 34 34 34 34 34 33 33 34 34 34 34 35 35 35 36 35 34 34 34 34 34 34 34 34 34 34 33 32 32 31 31 31 31 32 32 32 31
37 36 35 35 35 34 33 33 33 34 34 34 34 35 35 35 36 36 36 36 35 34 34 34 34 34 34 34 34 34 34 34 34 33 32 32 32 32 32 32 32 32 31
36 36 35 34 34 33 33 33 34 34 35 35 35 35 35 35 35 36 36 35 35 34 34 34 34 34 34 34 34 34 33 33 34 34 33 33 32 33 33 33 32 31 30
34 34 34 33 33 33 33 33 33 34 34 34 34 34 34 35 35 35 34 35 35 34 33 33 33 34 34 34 34 34 34 34 34 34 33 33 33 33 33 33 33 32 31
31 31 31 32 31 31 31 31 32 32 32 32 32 32 32 32 32 33 33 34 34 34 33 32 32 32 33 33 32 32 33 33 34 34 33 32 32 32 32 32 33 33 31
29 29 29 30 30 30 30 30 31 31 31 31 32 32 31 31 32 32 32 32 33 33 32 32 31 31 31 32 33 33 33 33 32 31 31 31 31 32 31 32 33 32 31
27 28 28 28 28 28 28 28 29 29 29 30 30 31 31 31 31 31 32 32 32 32 33 33 32 32 32 31 31 31 32 32 31 31 30 31 31 31 31 31 31 31 29
26 26 27 27 27 27 27 27 28 28 28 28 29 30 30 30 30 30 31 30 30 31 32 31 31 31 31 31 31 31 31 32 31 31 32 32 31 31 31 31 31 30 28
Wind_Direction
319 317 318 313 313 313 314 317 313 309 311 314 313 308 310 321 324 324 326 324 323 322 315 311 313 316 319 316 315 315 318 318 317 316 317 317 317 314 310 311 310 311 312
314 313 309 303 302 302 302 305 310 308 305 303 304 302 300 308 312 315 318 317 317 317 317 312 309 310 315 316 316 316 314 313 314 313 313 313 313 314 311 312 312 311 311
306 307 305 298 295 296 297 298 301 302 303 299 300 304 302 301 302 306 308 310 312 312 312 314 314 315 315 315 312 310 308 308 309 308 309 309 309 309 311 311 312 311 308
296 297 298 295 289 289 290 292 292 294 293 294 295 298 302 303 301 303 308 305 303 305 304 306 310 313 315 314 312 308 307 309 309 307 307 307 306 306 306 306 308 308 307
291 291 291 293 292 289 286 287 287 288 286 287 290 292 295 299 301 301 302 304 302 301 301 300 303 306 309 312 312 309 308 308 308 308 308 309 306 304 303 304 306 306 307
284 286 286 289 289 292 289 289 287 286 284 283 284 287 289 292 295 298 301 304 302 300 298 298 300 301 303 306 307 305 307 307 306 306 306 307 308 306 306 306 305 305 304
280 281 281 282 284 285 287 289 289 288 286 283 283 284 286 288 291 295 297 300 304 303 300 299 300 300 301 302 304 304 304 305 306 304 304 305 304 304 305 306 305 303 302
277 277 277 280 282 282 284 285 286 285 284 282 281 282 283 285 288 290 291 292 296 299 300 300 299 299 299 300 301 303 304 304 305 304 303 304 303 303 303 303 303 302 302
274 274 277 278 280 281 282 282 282 283 282 281 280 280 281 284 285 287 288 289 291 294 296 298 298 299 299 298 298 299 302 302 302 302 303 303 303 302 301 300 300 300 300
273 272 275 276 278 280 280 282 281 281 280 280 279 278 278 281 282 283 285 287 290 291 292 294 295 295 295 294 295 297 299 299 299 301 302 302 302 300 299 299 300 301 301
272 270 272 274 276 277 278 281 281 280 280 280 281 279 279 278 280 284 285 285 286 289 289 289 291 291 290 291 293 294 297 297 296 298 299 300 301 301 300 299 300 301 301
271 268 269 271 273 275 276 278 279 279 280 281 281 281 278 278 280 283 284 283 284 285 286 286 287 287 287 289 291 292 293 294 294 296 298 298 299 300 300 299 299 299 299
272 269 268 269 272 274 275 276 278 278 279 279 280 279 277 279 282 283 283 282 283 283 283 284 285 285 286 287 288 291 293 295 295 295 296 296 297 297 298 298 300 300 299
272 271 270 269 271 273 274 275 277 279 280 279 279 278 277 277 281 282 282 282 281 283 282 282 283 284 285 285 286 288 290 292 294 295 296 294 293 294 296 298 299 299 299
272 271 270 270 272 272 273 274 275 277 280 278 278 277 277 277 278 280 281 281 280 281 282 283 283 283 284 285 285 286 288 290 292 293 294 292 290 291 293 295 297 297 298
272 272 271 270 270 270 271 272 274 276 278 277 275 275 275 275 275 277 279 279 279 281 281 282 284 284 284 285 286 286 287 289 290 291 292 291 290 289 291 293 295 296 295
273 273 271 271 270 269 269 270 271 273 276 276 273 272 272 273 274 275 277 277 278 280 281 282 284 285 285 285 287 288 288 289 289 290 291 289 288 287 289 291 293 293 293
273 273 273 272 270 270 270 271 271 271 271 272 272 271 272 274 276 277 277 277 278 279 281 282 283 285 285 285 285 286 287 289 290 290 289 286 286 287 288 289 290 291 292
275 274 274 274 272 272 273 272 272 270 269 268 269 270 271 274 276 277 277 278 278 278 279 281 282 283 283 283 284 285 287 288 289 289 287 286 286 286 286 287 288 289 289
274 274 273 272 272 273 273 272 271 270 269 268 269 270 271 273 275 275 276 277 276 277 278 279 280 281 281 282 283 284 285 286 287 287 287 287 286 286 286 287 287 287 288
273 273 273 273 272 272 272 272 271 270 270 269 270 271 272 273 274 275 275 276 275 276 278 278 278 278 280 281 282 283 284 285 286 286 287 287 287 286 285 285 285 285 285
273 272 272 273 273 272 271 272 271 271 271 271 271 271 272 273 274 276 276 275 275 276 277 279 278 277 278 279 281 282 283 283 284 284 283 285 285 285 285 284 284 283 284
273 272 273 272 272 272 272 271 271 271 272 272 271 271 271 273 274 276 275 274 275 275 276 280 281 280 280 280 281 283 284 284 284 284 284 284 283 283 283 284 284 283 283
273 273 273 272 273 274 275 274 272 271 272 274 273 272 273 274 275 276 275 275 276 277 277 279 280 280 281 282 283 283 285 287 288 287 285 284 282 281 282 284 284 284 283
275 275 274 274 273 275 276 275 274 274 273 274 273 274 275 276 277 276 276 277 278 278 278 280 281 282 283 283 284 285 285 285 286 286 284 283 283 282 283 285 285 285 283
274 275 275 274 274 275 277 278 277 276 275 275 276 276 277 278 278 277 278 279 280 281 281 283 283 283 284 284 285 285 284 284 284 284 284 283 282 282 282 283 284 283 282
Height
5899 5898 5898 5897 5896 5895 5894 5893 5892 5891 5890 5888 5887 5885 5884 5882 5881 5880 5878 5877 5875 5874 5872 5871 5870 5868 5866 5864 5862 5861 5859 5857 5855 5853 5851 5849 5847 5845 5843 5841 5839 5836 5834
5897 5896 5896 5895 5894 5893 5892 5891 5890 5889 5888 5886 5885 5883 5882 5880 5879 5878 5876 5874 5873 5872 5870 5868 5867 5865 5863 5861 5859 5857 5856 5854 5852 5850 5848 5846 5844 5842 5839 5837 5835 5833 5830
5895 5894 5893 5892 5891 5890 5889 5888 5887 5886 5885 5884 5883 5881 5879 5878 5877 5875 5874 5872 5870 5869 5867 5865 5864 5862 5860 5858 5856 5854 5852 5850 5848 5846 5844 5842 5840 5838 5835 5833 5831 5829 5826
5892 5891 5890 5889 5888 5887 5886 5886 5885 5883 5882 5881 5879 5878 5876 5875 5874 5872 5870 5869 5867 5866 5864 5862 5861 5859 5857 5855 5853 5850 5848 5846 5844 5842 5840 5838 5836 5834 5831 5829 5827 5825 5822
5889 5888 5887 5886 5884 5883 5883 5882 5881 5880 5878 5877 5876 5875 5873 5872 5870 5869 5867 5866 5864 5862 5861 5859 5857 5855 5853 5851 5849 5847 5845 5843 5841 5838 5836 5834 5832 5829 5827 5825 5823 5821 5818
5884 5883 5883 5882 5881 5879 5878 5878 5877 5876 5874 5873 5872 5871 5870 5868 5867 5865 5863 5862 5860 5858 5857 5855 5853 5851 5849 5847 5844 5842 5840 5838 5836 5834 5832 5830 5827 5825 5822 5820 5818 5816 5814
5879 5878 5878 5877 5876 5875 5874 5873 5872 5871 5870 5869 5868 5866 5865 5864 5862 5861 5859 5858 5856 5854 5852 5851 5849 5847 5845 5843 5840 5838 5836 5834 5832 5830 5827 5825 5823 5820 5818 5815 5813 5810 5808
5873 5872 5872 5872 5871 5870 5869 5868 5867 5865 5864 5863 5862 5861 5860 5858 5857 5856 5855 5853 5852 5850 5848 5846 5844 5842 5840 5838 5836 5833 5831 5829 5827 5824 5822 5820 5817 5815 5813 5811 5808 5805 5802
5866 5866 5866 5866 5865 5864 5863 5862 5861 5859 5858 5857 5856 5855 5853 5852 5851 5850 5849 5847 5846 5845 5843 5841 5839 5837 5835 5833 5831 5828 5826 5824 5822 5819 5817 5814 5812 5810 5807 5805 5802 5799 5797
5859 5859 5859 5859 5859 5858 5857 5856 5854 5853 5852 5850 5849 5848 5847 5846 5845 5844 5842 5841 5840 5839 5837 5835 5834 5832 5830 5827 5825 5823 5821 5818 5816 5813 5811 5809 5806 5804 5801 5799 5796 5793 5790
5851 5851 5852 5851 5851 5851 5850 5849 5847 5846 5844 5843 5842 5841 5840 5839 5838 5837 5836 5834 5833 5832 5830 5829 5827 5825 5823 5821 5819 5817 5814 5812 5809 5807 5805 5803 5800 5798 5795 5792 5789 5787 5784
5844 5843 5844 5843 5843 5843 5842 5841 5840 5838 5837 5836 5834 5833 5831 5830 5830 5829 5828 5827 5826 5824 5823 5821 5820 5818 5816 5814 5812 5810 5808 5805 5803 5801 5799 5797 5794 5792 5789 5786 5783 5780 5777
5835 5835 5835 5834 5834 5834 5833 5832 5831 5830 5829 5828 5826 5825 5824 5823 5822 5821 5820 5819 5817 5816 5815 5813 5812 5810 5808 5807 5805 5803 5800 5798 5796 5794 5792 5790 5787 5785 5782 5779 5776 5772 5769
5826 5826 5825 5825 5825 5824 5823 5822 5821 5821 5820 5818 5817 5816 5815 5815 5814 5813 5812 5810 5809 5808 5807 5805 5804 5802 5800 5799 5797 5795 5793 5791 5788 5786 5784 5782 5779 5777 5774 5771 5768 5765 5762
5816 5816 5815 5815 5815 5814 5813 5813 5812 5811 5810 5809 5808 5807 5806 5806 5805 5804 5803 5802 5800 5799 5798 5796 5795 5793 5791 5790 5788 5786 5784 5782 5780 5778 5775 5773 5771 5768 5766 5763 5760 5757 5754
5806 5805 5805 5805 5804 5803 5803 5802 5801 5801 5800 5799 5798 5798 5797 5797 5796 5795 5794 5793 5791 5790 5788 5787 5785 5784 5782 5781 5779 5777 5775 5773 5771 5768 5766 5764 5762 5760 5757 5754 5752 5749 5746
5795 5794 5794 5793 5793 5792 5792 5791 5791 5790 5789 5788 5788 5787 5787 5787 5786 5785 5784 5783 5781 5780 5779 5777 5776 5775 5773 5771 5770 5768 5766 5764 5761 5759 5757 5755 5752 5750 5748 5745 5743 5740 5738
5783 5783 5782 5782 5781 5780 5780 5779 5779 5779 5778 5778 5777 5777 5777 5777 5776 5775 5774 5773 5772 5770 5769 5768 5766 5765 5763 5762 5760 5758 5756 5754 5752 5749 5747 5745 5743 5741 5739 5736 5734 5731 5729
5772 5771 5771 5771 5770 5769 5768 5768 5767 5767 5767 5767 5767 5767 5766 5766 5765 5764 5763 5762 5761 5760 5759 5758 5756 5755 5753 5751 5750 5748 5746 5744 5742 5739 5737 5735 5734 5731 5729 5727 5725 5722 5720
5760 5759 5759 5759 5759 5758 5758 5757 5756 5756 5756 5756 5756 5756 5755 5754 5754 5753 5752 5751 5750 5749 5748 5747 5746 5744 5743 5741 5739 5738 5736 5734 5732 5730 5728 5726 5724 5722 5720 5718 5715 5713 5711
5749 5749 5748 5747 5747 5747 5747 5746 5746 5745 5745 5745 5744 5744 5744 5744 5743 5742 5741 5740 5739 5738 5737 5736 5735 5733 5732 5730 5729 5727 5725 5723 5721 5720 5718 5716 5714 5712 5710 5708 5706 5703 5701
5738 5737 5737 5736 5736 5736 5735 5735 5735 5734 5734 5733 5733 5733 5733 5732 5732 5731 5730 5729 5728 5727 5726 5725 5724 5722 5721 5720 5718 5716 5715 5713 5711 5709 5708 5706 5704 5702 5699 5697 5696 5694 5692
5728 5727 5726 5726 5726 5725 5725 5725 5724 5723 5723 5723 5723 5722 5722 5722 5721 5720 5719 5718 5717 5716 5715 5714 5713 5711 5710 5708 5707 5706 5704 5702 5700 5699 5697 5695 5693 5691 5689 5687 5685 5684 5682
5718 5717 5716 5716 5716 5715 5715 5714 5714 5713 5713 5713 5712 5711 5711 5711 5710 5709 5708 5707 5707 5706 5705 5704 5702 5701 5699 5698 5697 5696 5694 5692 5690 5688 5686 5685 5683 5681 5679 5677 5675 5673 5672
5708 5708 5707 5706 5706 5705 5705 5704 5704 5704 5703 5703 5702 5701 5701 5700 5700 5699 5699 5698 5697 5696 5695 5693 5692 5691 5689 5688 5687 5685 5684 5682 5680 5678 5676 5675 5673 5671 5669 5667 5665 5663 5661
5699 5699 5698 5697 5697 5696 5696 5696 5695 5694 5694 5693 5692 5691 5691 5690 5690 5689 5689 5688 5687 5686 5685 5683 5682 5680 5679 5678 5676 5675 5673 5671 5670 5668 5666 5664 5663 5661 5659 5657 5655 5654 5652